AI4ZL Weather Reports


Display with metric or nautical units.
time (UTC)temp
F
wind
direction
speed
MPH
gust
MPH
rain 1hr
in
rain 24hr
in
rain mn
in
humidity
%
barometer
mb
20260905211242 101 300 2.0 7.0 0.00 0.00 0.00 47 1012.5
20260905210237 101 257 3.0 6.0 0.00 0.00 0.00 49 1012.6
20260905205232 102 298 2.0 6.0 0.00 0.00 0.00 48 1012.8
20260905204248 102 303 1.0 2.0 0.00 0.00 0.00 46 1012.8
20260905203243 102 290 2.0 6.0 0.00 0.00 0.00 46 1012.7
20260905202237 102 308 1.0 3.0 0.00 0.00 0.00 47 1013.0
20260905201232 102 273 3.0 7.0 0.00 0.00 0.00 48 1013.1
20260905200247 102 356 1.0 3.0 0.00 0.00 0.00 48 1013.4
20260905195242 102 287 1.0 3.0 0.00 0.00 0.00 49 1013.7
20260905194236 103 20 1.0 3.0 0.00 0.00 0.00 49 1013.8
20260905193252 102 274 1.0 2.0 0.00 0.00 0.00 49 1013.8
20260905192246 102 295 1.0 1.0 0.00 0.00 0.00 49 1013.9
20260905191241 102 299 1.0 2.0 0.00 0.00 0.00 49 1014.0
20260905190256 101 274 2.0 3.0 0.00 0.00 0.00 49 1014.2
20260905185231 102 29 1.0 3.0 0.00 0.00 0.00 50 1014.3
20260905184246 101 23 1.0 2.0 0.00 0.00 0.00 50 1014.5
20260905183241 100 335 1.0 3.0 0.00 0.00 0.00 50 1014.6
20260905182236 101 282 2.0 4.0 0.00 0.00 0.00 50 1014.6
20260905181232 102 42 1.0 2.0 0.00 0.00 0.00 49 1014.7
20260905180247 100 308 1.0 3.0 0.00 0.00 0.00 50 1014.9
20260905175243 99 345 1.0 3.0 0.00 0.00 0.00 53 1015.1
20260905174237 101 300 1.0 4.0 0.00 0.00 0.00 52 1015.1
20260905173232 99 290 1.0 4.0 0.00 0.00 0.00 52 1015.1
20260905172247 98 310 2.0 6.0 0.00 0.00 0.00 54 1015.2
20260905171302 98 264 2.0 4.0 0.00 0.00 0.00 55 1015.3
20260905170238 99 284 2.0 6.0 0.00 0.00 0.00 54 1015.5
20260905165233 98 326 2.0 4.0 0.00 0.00 0.00 54 1015.6
20260905164248 98 273 2.0 6.0 0.00 0.00 0.00 56 1015.6
20260905163243 99 0 1.0 2.0 0.00 0.00 0.00 55 1015.7
20260905162238 97 277 1.0 2.0 0.00 0.00 0.00 56 1015.8
20260905161233 98 277 1.0 2.0 0.00 0.00 0.00 59 1015.8
20260905160248 97 307 1.0 3.0 0.00 0.00 0.00 58 1015.8
20260905155244 97 325 1.0 2.0 0.00 0.00 0.00 59 1015.8
20260905154239 95 61 1.0 3.0 0.00 0.00 0.00 64 1016.0
20260905153233 95 40 1.0 3.0 0.00 0.00 0.00 65 1016.1
20260905152248 93 79 1.0 2.0 0.00 0.00 0.00 67 1016.0
20260905151242 93 60 1.0 3.0 0.00 0.00 0.00 68 1016.0
20260905150239 93 43 1.0 3.0 0.00 0.00 0.00 68 1015.9
20260905145235 92 35 1.0 3.0 0.00 0.00 0.00 70 1016.0
20260905144231 93 42 1.0 2.0 0.00 0.00 0.00 69 1015.9
20260905143247 92 17 0.0 2.0 0.00 0.00 0.00 71 1015.9
20260905142242 91 50 1.0 1.0 0.00 0.00 0.00 73 1016.0
20260905141237 89 15 1.0 2.0 0.00 0.00 0.00 75 1016.0
20260905140231 87 273 2.0 3.0 0.00 0.00 0.00 76 1015.9
20260905135246 88 0.0 0.0 0.00 0.00 0.00 79 1016.1
20260905134241 86 0.0 0.0 0.00 0.00 0.00 81 1015.9
20260905133236 85 0.0 0.0 0.00 0.00 0.00 85 1015.9
20260905132230 81 0.0 0.0 0.00 0.00 0.00 94 1016.0
20260905131246 80 0.0 0.0 0.00 0.00 0.00 99 1015.8
20260905130241 78 0.0 0.0 0.00 0.00 0.00 99 1015.9
20260905125234 76 0.0 0.0 0.00 0.00 0.00 99 1015.8
20260905124249 75 0.0 0.0 0.00 0.00 0.00 99 1015.7
20260905123244 74 0.0 0.0 0.00 0.00 0.00 99 1015.6
20260905122238 74 0.0 0.0 0.00 0.00 0.00 99 1015.7
20260905121234 73 0.0 0.0 0.00 0.00 0.00 99 1015.5
20260905120248 73 0.0 0.0 0.00 0.00 0.00 99 1015.5
20260905115243 73 0.0 0.0 0.00 0.00 0.00 99 1015.4
20260905114237 73 0.0 0.0 0.00 0.00 0.00 99 1015.4
20260905113230 72 0.0 0.0 0.00 0.00 0.00 99 1015.3
20260905112245 73 0.0 0.0 0.00 0.00 0.00 99 1015.3
20260905111240 72 0.0 0.0 0.00 0.00 0.00 99 1015.3
20260905110235 73 0.0 0.0 0.00 0.00 0.00 99 1015.2
20260905105309 73 0.0 0.0 0.00 0.00 0.00 99 1015.2
20260905104305 73 0.0 0.0 0.00 0.00 0.00 99 1015.0
20260905103239 73 0.0 0.0 0.00 0.00 0.00 99 1015.0
20260905102233 73 0.0 0.0 0.00 0.00 0.00 99 1014.9
20260905101248 73 0.0 0.0 0.00 0.00 0.00 99 1014.8
20260905100243 73 0.0 0.0 0.00 0.00 0.00 99 1014.7
20260905095239 74 0.0 0.0 0.00 0.00 0.00 99 1014.7
20260905094234 74 0.0 0.0 0.00 0.00 0.00 99 1014.6
20260905093309 73 0.0 0.0 0.00 0.00 0.00 99 1014.6
20260905092244 74 0.0 0.0 0.00 0.00 0.00 99 1014.6
20260905091239 73 0.0 0.0 0.00 0.00 0.00 99 1014.7
20260905090234 73 0.0 0.0 0.00 0.00 0.00 99 1014.7
20260905085249 73 0.0 0.0 0.00 0.00 0.00 99 1014.8
20260905084305 74 0.0 0.0 0.00 0.00 0.00 99 1014.7
20260905083240 74 0.0 0.0 0.00 0.00 0.00 99 1014.7
20260905082235 74 0.0 0.0 0.00 0.00 0.00 99 1014.6
20260905081250 74 0.0 0.0 0.00 0.00 0.00 99 1014.8
20260905080244 74 0.0 0.0 0.00 0.00 0.00 99 1014.7
20260905075259 74 0.0 0.0 0.00 0.00 0.00 99 1014.9
20260905074253 75 0.0 0.0 0.00 0.00 0.00 99 1014.9
20260905073248 75 0.0 0.0 0.00 0.00 0.00 99 1014.8
20260905072242 75 0.0 0.0 0.00 0.00 0.00 99 1014.9
20260905071237 75 0.0 0.0 0.00 0.00 0.00 99 1015.0
20260905070231 75 0.0 0.0 0.00 0.00 0.00 99 1015.1
20260905065246 75 0.0 0.0 0.00 0.00 0.00 99 1015.1
20260905064242 75 0.0 0.0 0.00 0.00 0.00 99 1015.2
20260905063239 75 0.0 0.0 0.00 0.00 0.00 99 1015.2
20260905062255 76 0.0 0.0 0.00 0.00 0.00 99 1015.2
20260905061249 75 0.0 0.0 0.00 0.00 0.00 99 1015.2
20260905060243 75 0.0 0.0 0.00 0.00 0.00 99 1015.3
20260905055238 76 0.0 0.0 0.00 0.00 0.00 99 1015.2
20260905054233 76 0.0 0.0 0.00 0.00 0.00 99 1015.1
20260905053248 76 0.0 0.0 0.00 0.00 0.00 99 1015.4
20260905052244 76 0.0 0.0 0.00 0.00 0.00 99 1015.3
20260905051239 76 0.0 0.0 0.00 0.00 0.00 99 1015.5
20260905050234 76 0.0 0.0 0.00 0.00 0.00 99 1015.4
20260905045249 76 0.0 0.0 0.00 0.00 0.00 99 1015.5
20260905044243 77 0.0 0.0 0.00 0.00 0.00 99 1015.4
20260905043238 76 0.0 0.0 0.00 0.00 0.00 99 1015.6
20260905042232 77 318 0.0 1.0 0.00 0.00 0.00 99 1015.5
20260905041247 77 318 0.0 1.0 0.00 0.00 0.00 98 1015.5
20260905040242 77 0.0 0.0 0.00 0.00 0.00 98 1015.4
20260905035236 77 0.0 0.0 0.00 0.00 0.00 98 1015.4
20260905034232 78 0.0 0.0 0.00 0.00 0.00 98 1015.4
20260905033307 78 0.0 0.0 0.00 0.00 0.00 98 1015.5
20260905032306 79 0.0 0.0 0.00 0.00 0.00 98 1015.5
20260905031238 78 303 0.0 1.0 0.00 0.00 0.00 98 1015.7
20260905030233 79 0.0 0.0 0.00 0.00 0.00 97 1015.8
20260905025248 79 0.0 0.0 0.00 0.00 0.00 97 1015.6
20260905024242 79 0.0 0.0 0.00 0.00 0.00 96 1015.4
20260905023237 80 0.0 0.0 0.00 0.00 0.00 95 1015.4
20260905022251 80 0.0 0.0 0.00 0.00 0.00 95 1015.4
20260905021246 80 0.0 0.0 0.00 0.00 0.00 94 1015.5
20260905020241 80 0.0 0.0 0.00 0.00 0.00 94 1015.4
20260905015236 81 329 0.0 1.0 0.00 0.00 0.00 93 1015.4
20260905014251 81 315 0.0 1.0 0.00 0.00 0.00 94 1015.2
20260905013246 81 0.0 0.0 0.00 0.00 0.00 92 1015.1
20260905012300 82 327 0.0 1.0 0.00 0.00 0.00 91 1014.9
20260905011235 83 322 0.0 1.0 0.00 0.00 0.00 89 1014.9
20260905010250 84 322 0.0 1.0 0.00 0.00 0.00 90 1014.8
20260905005244 84 318 0.0 1.0 0.00 0.00 0.00 90 1014.9
20260905004300 85 12 0.0 1.0 0.00 0.00 0.00 87 1014.7
20260905003237 86 0.0 0.0 0.00 0.00 0.00 86 1014.6
20260905002232 88 0.0 0.0 0.00 0.00 0.00 80 1014.5
20260905001246 90 0.0 0.0 0.00 0.00 0.00 78 1014.6
20260905000242 91 0.0 0.0 0.00 0.00 0.00 76 1014.4
20260904235258 93 0.0 0.0 0.00 0.00 0.00 71 1014.4
20260904234232 94 0.0 0.0 0.00 0.00 0.00 72 1014.4
20260904233246 96 0.0 0.0 0.00 0.00 0.00 68 1014.4
20260904232242 96 352 0.0 1.0 0.00 0.00 0.00 62 1014.4
20260904231257 96 13 1.0 1.0 0.00 0.00 0.00 58 1014.4
20260904230232 98 14 1.0 1.0 0.00 0.00 0.00 58 1014.3
20260904225248 99 357 0.0 1.0 0.00 0.00 0.00 56 1014.2
20260904224302 99 358 0.0 1.0 0.00 0.00 0.00 53 1014.4
20260904223238 101 359 0.0 1.0 0.00 0.00 0.00 52 1014.5
20260904222233 99 14 0.0 1.0 0.00 0.00 0.00 55 1014.5
20260904221308 98 347 0.0 1.0 0.00 0.00 0.00 56 1014.4
20260904220242 99 0 1.0 2.0 0.00 0.00 0.00 53 1014.5
20260904215237 100 9 1.0 2.0 0.00 0.00 0.00 52 1014.4
20260904214232 100 50 1.0 2.0 0.00 0.00 0.00 53 1014.6
20260904213307 100 108 1.0 3.0 0.00 0.00 0.00 54 1014.9
20260904212242 101 16 1.0 2.0 0.00 0.00 0.00 51 1014.9